Zurück zum Katalog

CZ-4C DEB

AktivLEO
NORAD 43628·DEBRIS·🇨🇳 China

Gestartet Nov 20, 2013 von Taiyuan Satellite Launch Center

Loading…

Nächste Überflüge (nächste 24 Stunden)

TLE

AktuellSource: Space-Track

Epoche: Sep 13, 2026, 12:05 UTC

1 43628U 13065E   26256.50372443  .00006751  00000-0  15001-2 0  9995
2 43628 100.5245 270.3908 0122661 255.8819 102.8712 14.52896176416952

Verfolge CZ-4C DEB in Echtzeit mit AllMySat

Download on the App Store